Location: *
(31.2983°S, 151.4094°E)
Time: 06:40:11
(UTC+00:00)

Cosmos 2297 - Pass Details

Date: 25 August 2019
Orbit: 835 x 859 km, 71.0° (Epoch: 15 September)

Event Time Altitude Azimuth Distance (km) Brightness Sun altitude
Exits shadow 19:06:28 - 207° (SSW) 3,391 6.6 -16.1°
Reaches altitude 10° 19:08:54 10° 212° (SSW) 2,481 5.8 -15.6°
Maximum altitude 19:14:23 50° 285° (WNW) 1,061 3.8 -14.4°
Drops below altitude 10° 19:19:46 10° 360° (N) 2,442 6.2 -13.3°
Sets 19:22:15 0° 5° (N) 3,367 7.0 -12.8°
